When you browse on this site, cookies collect data to enhance your experience and personalize the content and advertising you see.
Visit our Privacy Policy to learn more. By continuing to use the site, you agree to this use of cookies and data.
  • In Hungary
  • List of Countries
  • For 7 days
  • Water Temperature
  • Weather Map
  • News
  • Weather Widgets
  • user-avatar
    Login

    Hourly Weather Jhalrapatan

    Today, 20 November, Wednesday

    Time Temperature Precipitation Wind Pressure Humidity
    00:00 +23°C° 0 mm 1 mps 732 mmHg 54%
    01:00 +23°C° 0 mm 1 mps 731 mmHg 56%
    02:00 +20°C° 0 mm 0 mps 731 mmHg 58%
    03:00 +22°C° 0 mm 1 mps 731 mmHg 58%
    04:00 +22°C° 0 mm 1 mps 731 mmHg 59%
    05:00 +21°C° 0 mm 1 mps 731 mmHg 62%
    06:00 +22°C° 0 mm 1 mps 732 mmHg 60%
    07:00 +23°C° 0 mm 1 mps 732 mmHg 57%
    08:00 +24°C° 0 mm 2 mps 733 mmHg 54%
    09:00 +26°C° 0 mm 2 mps 733 mmHg 49%
    10:00 +27°C° 0 mm 2 mps 732 mmHg 44%
    11:00 +29°C° 0 mm 2 mps 733 mmHg 38%
    12:00 +30°C° 0 mm 2 mps 732 mmHg 36%
    13:00 +30°C° 0 mm 2 mps 731 mmHg 34%
    14:00 +31°C° 0 mm 1 mps 731 mmHg 31%
    15:00 +30°C° 0 mm 1 mps 731 mmHg 34%
    16:00 +29°C° 0 mm 1 mps 731 mmHg 36%
    17:00 +28°C° 0 mm 1 mps 731 mmHg 39%
    18:00 +27°C° 0 mm 1 mps 731 mmHg 41%
    19:00 +26°C° 0 mm 2 mps 732 mmHg 43%
    20:00 +25°C° 0 mm 2 mps 733 mmHg 45%
    21:00 +25°C° 0 mm 2 mps 732 mmHg 48%
    22:00 +24°C° 0 mm 2 mps 732 mmHg 50%
    23:00 +24°C° 0 mm 2 mps 732 mmHg 53%

    Tomorrow, 21 November, Thursday

    Time Temperature Precipitation Wind Pressure Humidity
    00:00 +23°C° 0 mm 2 mps 732 mmHg 55%
    01:00 +23°C° 0 mm 2 mps 732 mmHg 57%
    02:00 +21°C° 0 mm 2 mps 732 mmHg 59%
    03:00 +22°C° 0 mm 1 mps 732 mmHg 61%
    04:00 +22°C° 0 mm 1 mps 732 mmHg 62%
    05:00 +21°C° 0 mm 1 mps 732 mmHg 64%
    06:00 +21°C° 0 mm 2 mps 732 mmHg 62%
    07:00 +23°C° 0 mm 2 mps 733 mmHg 59%
    08:00 +24°C° 0 mm 2 mps 734 mmHg 57%
    09:00 +26°C° 0 mm 2 mps 734 mmHg 51%
    10:00 +27°C° 0 mm 2 mps 734 mmHg 46%
    11:00 +29°C° 0 mm 2 mps 734 mmHg 40%
    12:00 +30°C° 0 mm 2 mps 733 mmHg 38%
    13:00 +31°C° 0 mm 2 mps 733 mmHg 35%
    14:00 +31°C° 0 mm 2 mps 732 mmHg 32%
    15:00 +30°C° 0 mm 2 mps 732 mmHg 35%
    16:00 +29°C° 0 mm 2 mps 732 mmHg 37%
    17:00 +28°C° 0 mm 2 mps 732 mmHg 39%
    18:00 +27°C° 0 mm 2 mps 732 mmHg 41%
    19:00 +27°C° 0 mm 2 mps 733 mmHg 43%
    20:00 +26°C° 0 mm 2 mps 734 mmHg 44%
    21:00 +25°C° 0 mm 2 mps 733 mmHg 47%
    22:00 +24°C° 0 mm 2 mps 733 mmHg 49%
    23:00 +24°C° 0 mm 2 mps 733 mmHg 52%

    Day after tomorrow, 22 November, Friday

    Time Temperature Precipitation Wind Pressure Humidity
    00:00 +23°C° 0 mm 2 mps 733 mmHg 53%
    01:00 +23°C° 0 mm 2 mps 733 mmHg 54%
    02:00 +21°C° 0 mm 2 mps 733 mmHg 55%
    03:00 +21°C° 0 mm 2 mps 732 mmHg 55%
    04:00 +21°C° 0 mm 2 mps 732 mmHg 56%
    05:00 +20°C° 0 mm 2 mps 732 mmHg 57%
    06:00 +21°C° 0 mm 2 mps 733 mmHg 55%
    07:00 +23°C° 0 mm 2 mps 734 mmHg 53%
    08:00 +24°C° 0 mm 2 mps 734 mmHg 50%
    09:00 +25°C° 0 mm 2 mps 734 mmHg 46%
    10:00 +27°C° 0 mm 2 mps 734 mmHg 42%
    11:00 +29°C° 0 mm 2 mps 734 mmHg 37%
    12:00 +30°C° 0 mm 2 mps 734 mmHg 36%
    13:00 +30°C° 0 mm 1 mps 733 mmHg 34%
    14:00 +29°C° 0 mm 0 mps 732 mmHg 32%
    15:00 +30°C° 0 mm 1 mps 732 mmHg 34%
    16:00 +29°C° 0 mm 1 mps 732 mmHg 37%
    17:00 +28°C° 0 mm 1 mps 732 mmHg 39%
    18:00 +27°C° 0 mm 1 mps 732 mmHg 41%
    19:00 +26°C° 0 mm 2 mps 733 mmHg 42%
    20:00 +26°C° 0 mm 2 mps 733 mmHg 43%
    21:00 +25°C° 0 mm 2 mps 733 mmHg 45%
    22:00 +24°C° 0 mm 2 mps 733 mmHg 47%
    23:00 +24°C° 0 mm 2 mps 733 mmHg 48%

    23 November, Saturday

    Time Temperature Precipitation Wind Pressure Humidity
    00:00 +23°C° 0 mm 2 mps 733 mmHg 50%
    01:00 +23°C° 0 mm 2 mps 732 mmHg 51%
    02:00 +22°C° 0 mm 1 mps 732 mmHg 52%
    03:00 +22°C° 0 mm 1 mps 732 mmHg 53%
    04:00 +21°C° 0 mm 2 mps 732 mmHg 53%
    05:00 +21°C° 0 mm 2 mps 732 mmHg 53%
    06:00 +22°C° 0 mm 1 mps 733 mmHg 51%
    07:00 +23°C° 0 mm 1 mps 733 mmHg 50%
    08:00 +24°C° 0 mm 1 mps 734 mmHg 48%
    09:00 +26°C° 0 mm 1 mps 734 mmHg 44%
    10:00 +27°C° 0 mm 1 mps 734 mmHg 39%
    11:00 +29°C° 0 mm 1 mps 734 mmHg 35%
    12:00 +29°C° 0 mm 1 mps 733 mmHg 34%
    13:00 +30°C° 0 mm 1 mps 733 mmHg 33%
    14:00 +30°C° 0 mm 1 mps 732 mmHg 32%
    15:00 +29°C° 0 mm 1 mps 732 mmHg 35%
    16:00 +29°C° 0 mm 1 mps 732 mmHg 37%
    17:00 +28°C° 0 mm 1 mps 731 mmHg 40%
    18:00 +27°C° 0 mm 1 mps 732 mmHg 41%
    19:00 +26°C° 0 mm 2 mps 732 mmHg 42%
    20:00 +26°C° 0 mm 2 mps 733 mmHg 43%
    21:00 +25°C° 0 mm 2 mps 733 mmHg 44%
    22:00 +25°C° 0 mm 2 mps 733 mmHg 45%
    23:00 +24°C° 0 mm 2 mps 733 mmHg 46%

    24 November, Sunday

    Time Temperature Precipitation Wind Pressure Humidity
    00:00 +24°C° 0 mm 2 mps 732 mmHg 47%
    01:00 +23°C° 0 mm 1 mps 732 mmHg 49%
    02:00 +23°C° 0 mm 1 mps 732 mmHg 50%
    03:00 +22°C° 0 mm 1 mps 732 mmHg 51%
    04:00 +20°C° 0 mm 0 mps 732 mmHg 53%
    05:00 +20°C° 0 mm 0 mps 732 mmHg 54%
    06:00 +20°C° 0 mm 0 mps 732 mmHg 52%
    07:00 +21°C° 0 mm 0 mps 733 mmHg 50%
    08:00 +24°C° 0 mm 1 mps 733 mmHg 48%
    09:00 +26°C° 0 mm 1 mps 733 mmHg 45%
    10:00 +27°C° 0 mm 1 mps 733 mmHg 41%
    11:00 +29°C° 0 mm 1 mps 733 mmHg 37%
    12:00 +30°C° 0 mm 1 mps 732 mmHg 35%
    13:00 +30°C° 0 mm 1 mps 732 mmHg 33%
    14:00 +31°C° 0 mm 1 mps 731 mmHg 31%
    15:00 +30°C° 0 mm 1 mps 731 mmHg 34%
    16:00 +29°C° 0 mm 1 mps 731 mmHg 36%
    17:00 +28°C° 0 mm 1 mps 731 mmHg 39%
    18:00 +27°C° 0 mm 1 mps 731 mmHg 40%
    19:00 +27°C° 0 mm 1 mps 732 mmHg 41%
    20:00 +26°C° 0 mm 1 mps 732 mmHg 43%
    21:00 +25°C° 0 mm 1 mps 732 mmHg 44%
    22:00 +25°C° 0 mm 1 mps 732 mmHg 46%
    23:00 +24°C° 0 mm 1 mps 732 mmHg 48%

    25 November, Monday

    Time Temperature Precipitation Wind Pressure Humidity
    00:00 +24°C° 0 mm 1 mps 732 mmHg 48%
    01:00 +23°C° 0 mm 1 mps 731 mmHg 49%
    02:00 +23°C° 0 mm 2 mps 731 mmHg 50%
    03:00 +23°C° 0 mm 1 mps 731 mmHg 51%
    04:00 +22°C° 0 mm 1 mps 731 mmHg 52%
    05:00 +22°C° 0 mm 1 mps 732 mmHg 53%
    06:00 +23°C° 0 mm 1 mps 732 mmHg 51%
    07:00 +24°C° 0 mm 1 mps 733 mmHg 50%
    08:00 +24°C° 0 mm 1 mps 733 mmHg 49%
    09:00 +26°C° 0 mm 2 mps 733 mmHg 44%
    10:00 +28°C° 0 mm 2 mps 733 mmHg 39%
    11:00 +30°C° 0 mm 3 mps 733 mmHg 34%
    12:00 +30°C° 0 mm 3 mps 733 mmHg 32%
    13:00 +31°C° 0 mm 2 mps 732 mmHg 30%
    14:00 +31°C° 0 mm 2 mps 731 mmHg 28%
    15:00 +30°C° 0 mm 2 mps 731 mmHg 31%
    16:00 +29°C° 0 mm 2 mps 731 mmHg 33%
    17:00 +28°C° 0 mm 1 mps 731 mmHg 36%
    18:00 +27°C° 0 mm 2 mps 732 mmHg 37%
    19:00 +27°C° 0 mm 2 mps 732 mmHg 39%
    20:00 +26°C° 0 mm 2 mps 733 mmHg 40%
    21:00 +25°C° 0 mm 2 mps 733 mmHg 43%
    22:00 +24°C° 0 mm 2 mps 733 mmHg 45%
    23:00 +24°C° 0 mm 2 mps 733 mmHg 48%
    Show more